QPF
0.01 0.01 0.01 0.01 0.01 0.01 0.01 0.01 0.00 0.00 0.00 0.00 0.00 0.00 0.00 0.00 0.00 0.00 0.00 0.00 0.00 0.00 0.00 0.01 0.03 0.04 0.03 0.02 0.02 0.01 0.01 0.01 0.01 0.02 0.05 0.07 0.05 0.03 0.02 0.01 0.02 0.02 0.04 0.05 0.05 0.02 0.01 0.01 0.01
0.01 0.01 0.01 0.01 0.01 0.01 0.01 0.00 0.00 0.00 0.00 0.00 0.00 0.00 0.00 0.00 0.00 0.00 0.00 0.00 0.00 0.01 0.03 0.05 0.06 0.04 0.03 0.02 0.01 0.01 0.01 0.01 0.02 0.03 0.05 0.07 0.04 0.03 0.02 0.02 0.02 0.03 0.04 0.05 0.04 0.02 0.01 0.01 0.01
0.01 0.01 0.01 0.01 0.01 0.01 0.01 0.00 0.00 0.00 0.00 0.00 0.00 0.00 0.00 0.00 0.00 0.00 0.00 0.00 0.00 0.01 0.04 0.08 0.05 0.04 0.04 0.03 0.02 0.02 0.02 0.01 0.02 0.04 0.05 0.05 0.04 0.03 0.03 0.03 0.03 0.03 0.04 0.04 0.03 0.02 0.02 0.02 0.01
0.02 0.01 0.01 0.01 0.01 0.01 0.01 0.00 0.00 0.00 0.00 0.00 0.00 0.00 0.00 0.00 0.00 0.00 0.00 0.00 0.00 0.01 0.02 0.04 0.04 0.04 0.05 0.04 0.03 0.02 0.01 0.01 0.02 0.02 0.04 0.10 0.08 0.04 0.03 0.03 0.03 0.03 0.03 0.04 0.03 0.03 0.03 0.03 0.02
0.02 0.02 0.01 0.01 0.01 0.01 0.00 0.00 0.00 0.00 0.00 0.00 0.00 0.00 0.01 0.00 0.00 0.00 0.00 0.00 0.00 0.01 0.02 0.02 0.02 0.03 0.05 0.06 0.03 0.02 0.01 0.01 0.02 0.03 0.02 0.04 0.04 0.04 0.04 0.03 0.03 0.03 0.04 0.03 0.03 0.02 0.02 0.02 0.02
0.02 0.02 0.02 0.01 0.01 0.01 0.00 0.00 0.00 0.00 0.00 0.00 0.00 0.00 0.00 0.00 0.01 0.00 0.00 0.00 0.00 0.01 0.02 0.03 0.02 0.02 0.03 0.07 0.04 0.02 0.01 0.02 0.03 0.03 0.04 0.04 0.05 0.06 0.05 0.04 0.04 0.04 0.04 0.04 0.03 0.02 0.02 0.02 0.02
0.02 0.01 0.01 0.01 0.00 0.00 0.00 0.00 0.00 0.00 0.00 0.00 0.00 0.00 0.01 0.00 0.01 0.01 0.00 0.00 0.00 0.00 0.01 0.03 0.03 0.03 0.02 0.03 0.04 0.03 0.03 0.04 0.05 0.05 0.05 0.06 0.07 0.06 0.04 0.03 0.03 0.03 0.04 0.03 0.02 0.01 0.01 0.01 0.01
0.01 0.01 0.01 0.01 0.00 0.00 0.00 0.00 0.00 0.00 0.00 0.00 0.00 0.00 0.01 0.01 0.00 0.01 0.00 0.01 0.01 0.01 0.01 0.02 0.03 0.03 0.02 0.02 0.02 0.01 0.02 0.03 0.03 0.03 0.02 0.02 0.02 0.02 0.01 0.01 0.01 0.02 0.02 0.02 0.01 0.01 0.02 0.02 0.01
0.00 0.01 0.01 0.00 0.00 0.00 0.00 0.00 0.00 0.00 0.00 0.00 0.00 0.00 0.00 0.01 0.01 0.01 0.01 0.01 0.01 0.01 0.01 0.01 0.02 0.02 0.02 0.03 0.02 0.01 0.01 0.02 0.02 0.01 0.01 0.01 0.01 0.01 0.01 0.00 0.00 0.01 0.01 0.01 0.01 0.01 0.01 0.01 0.01
0.00 0.01 0.00 0.00 0.00 0.00 0.00 0.00 0.00 0.00 0.00 0.00 0.00 0.00 0.00 0.01 0.01 0.01 0.01 0.01 0.00 0.00 0.01 0.01 0.02 0.02 0.02 0.02 0.03 0.02 0.01 0.02 0.01 0.01 0.01 0.01 0.01 0.01 0.00 0.00 0.00 0.00 0.00 0.01 0.01 0.01 0.02 0.02 0.01
0.00 0.00 0.00 0.00 0.00 0.00 0.00 0.00 0.00 0.00 0.00 0.00 0.00 0.00 0.00 0.00 0.00 0.01 0.01 0.01 0.00 0.00 0.00 0.01 0.03 0.03 0.02 0.02 0.02 0.02 0.02 0.02 0.01 0.02 0.02 0.02 0.02 0.02 0.01 0.01 0.01 0.00 0.00 0.00 0.01 0.01 0.02 0.03 0.03
0.00 0.00 0.00 0.00 0.00 0.00 0.00 0.00 0.00 0.00 0.00 0.00 0.00 0.00 0.00 0.00 0.00 0.00 0.01 0.01 0.01 0.00 0.00 0.01 0.03 0.03 0.03 0.02 0.02 0.03 0.02 0.01 0.01 0.01 0.01 0.02 0.02 0.02 0.01 0.01 0.01 0.01 0.01 0.01 0.02 0.01 0.01 0.02 0.04
0.00 0.00 0.00 0.00 0.00 0.00 0.00 0.00 0.00 0.00 0.00 0.00 0.00 0.00 0.00 0.00 0.00 0.00 0.01 0.01 0.01 0.01 0.00 0.00 0.01 0.04 0.04 0.04 0.04 0.04 0.04 0.02 0.01 0.00 0.01 0.01 0.01 0.01 0.01 0.00 0.00 0.01 0.01 0.01 0.02 0.03 0.03 0.03 0.04
0.00 0.01 0.00 0.00 0.00 0.00 0.00 0.00 0.00 0.00 0.00 0.00 0.00 0.00 0.00 0.00 0.00 0.00 0.00 0.01 0.01 0.00 0.00 0.00 0.01 0.02 0.04 0.06 0.08 0.07 0.06 0.05 0.03 0.01 0.01 0.01 0.01 0.01 0.01 0.01 0.00 0.01 0.01 0.01 0.01 0.02 0.03 0.03 0.04
0.00 0.01 0.01 0.00 0.00 0.00 0.00 0.00 0.00 0.00 0.00 0.00 0.00 0.00 0.00 0.00 0.00 0.00 0.00 0.00 0.00 0.01 0.01 0.01 0.01 0.01 0.02 0.04 0.07 0.08 0.08 0.07 0.05 0.03 0.02 0.01 0.01 0.01 0.01 0.01 0.01 0.01 0.01 0.01 0.01 0.01 0.02 0.03 0.04
0.00 0.00 0.01 0.01 0.00 0.00 0.00 0.00 0.00 0.00 0.00 0.00 0.00 0.00 0.00 0.00 0.00 0.00 0.00 0.00 0.00 0.01 0.01 0.01 0.01 0.01 0.02 0.03 0.03 0.04 0.05 0.05 0.04 0.03 0.02 0.02 0.02 0.01 0.02 0.02 0.02 0.02 0.01 0.01 0.01 0.01 0.02 0.03 0.04
0.00 0.00 0.00 0.01 0.01 0.00 0.00 0.00 0.00 0.00 0.00 0.00 0.00 0.00 0.00 0.00 0.00 0.00 0.00 0.00 0.00 0.01 0.01 0.01 0.01 0.01 0.02 0.01 0.02 0.02 0.02 0.03 0.04 0.03 0.02 0.02 0.03 0.03 0.02 0.01 0.01 0.01 0.01 0.01 0.01 0.01 0.02 0.04 0.05
0.00 0.00 0.00 0.00 0.01 0.01 0.00 0.00 0.00 0.00 0.00 0.00 0.00 0.00 0.00 0.01 0.00 0.00 0.00 0.00 0.00 0.00 0.01 0.01 0.01 0.01 0.01 0.01 0.01 0.01 0.01 0.02 0.04 0.05 0.03 0.01 0.02 0.02 0.02 0.01 0.01 0.01 0.01 0.01 0.01 0.01 0.02 0.05 0.06
0.00 0.00 0.00 0.00 0.00 0.01 0.00 0.00 0.00 0.00 0.00 0.00 0.01 0.01 0.01 0.01 0.01 0.01 0.00 0.00 0.00 0.00 0.00 0.00 0.01 0.01 0.01 0.01 0.01 0.01 0.01 0.02 0.03 0.05 0.05 0.03 0.02 0.01 0.02 0.02 0.02 0.02 0.01 0.01 0.01 0.02 0.03 0.04 0.04
0.00 0.00 0.00 0.00 0.00 0.00 0.00 0.00 0.00 0.00 0.00 0.00 0.00 0.00 0.01 0.01 0.02 0.01 0.01 0.00 0.00 0.00 0.00 0.00 0.00 0.01 0.01 0.01 0.01 0.01 0.02 0.02 0.02 0.03 0.05 0.05 0.03 0.02 0.01 0.01 0.02 0.02 0.02 0.02 0.02 0.02 0.03 0.04 0.05
0.00 0.00 0.00 0.00 0.00 0.00 0.00 0.00 0.00 0.00 0.00 0.00 0.00 0.00 0.00 0.01 0.01 0.01 0.00 0.00 0.00 0.00 0.00 0.00 0.00 0.00 0.01 0.01 0.02 0.02 0.03 0.03 0.03 0.05 0.05 0.05 0.05 0.04 0.02 0.01 0.02 0.02 0.02 0.03 0.03 0.03 0.02 0.03 0.05
0.00 0.00 0.00 0.00 0.00 0.00 0.01 0.01 0.00 0.00 0.00 0.00 0.00 0.00 0.00 0.00 0.00 0.00 0.00 0.00 0.00 0.00 0.00 0.00 0.00 0.00 0.01 0.01 0.01 0.02 0.02 0.02 0.02 0.03 0.04 0.04 0.04 0.05 0.04 0.02 0.02 0.02 0.03 0.03 0.04 0.04 0.03 0.03 0.04
0.01 0.00 0.01 0.01 0.01 0.01 0.00 0.00 0.00 0.00 0.00 0.00 0.00 0.00 0.00 0.00 0.00 0.00 0.00 0.00 0.00 0.00 0.00 0.00 0.00 0.01 0.01 0.01 0.01 0.02 0.02 0.02 0.02 0.03 0.03 0.04 0.05 0.05 0.05 0.04 0.03 0.02 0.02 0.03 0.03 0.04 0.04 0.05 0.05
0.01 0.01 0.01 0.01 0.01 0.01 0.00 0.00 0.00 0.00 0.00 0.00 0.00 0.00 0.00 0.00 0.00 0.00 0.00 0.00 0.00 0.00 0.00 0.00 0.00 0.01 0.01 0.02 0.02 0.02 0.02 0.02 0.02 0.03 0.03 0.03 0.04 0.05 0.05 0.04 0.03 0.02 0.02 0.02 0.03 0.04 0.04 0.04 0.04
0.01 0.02 0.02 0.02 0.01 0.00 0.00 0.00 0.00 0.00 0.00 0.00 0.00 0.00 0.00 0.00 0.00 0.00 0.00 0.00 0.00 0.00 0.00 0.00 0.01 0.01 0.02 0.02 0.03 0.03 0.02 0.02 0.02 0.02 0.03 0.03 0.03 0.04 0.04 0.04 0.03 0.02 0.02 0.01 0.02 0.03 0.04 0.03 0.04
0.01 0.01 0.01 0.01 0.00 0.00 0.00 0.00 0.00 0.00 0.00 0.00 0.00 0.00 0.00 0.00 0.00 0.00 0.00 0.00 0.00 0.00 0.01 0.01 0.01 0.01 0.02 0.02 0.02 0.02 0.02 0.02 0.02 0.02 0.03 0.03 0.03 0.02 0.03 0.03 0.03 0.03 0.02 0.01 0.01 0.03 0.04 0.05 0.05
0.02 0.01 0.00 0.01 0.00 0.00 0.00 0.00 0.00 0.00 0.00 0.00 0.00 0.00 0.00 0.00 0.00 0.00 0.00 0.00 0.00 0.01 0.02 0.02 0.02 0.01 0.01 0.01 0.01 0.02 0.02 0.03 0.03 0.02 0.03 0.03 0.03 0.04 0.03 0.03 0.03 0.03 0.03 0.03 0.02 0.02 0.03 0.04 0.05
0.02 0.02 0.01 0.01 0.01 0.00 0.00 0.00 0.00 0.00 0.00 0.00 0.00 0.00 0.00 0.01 0.01 0.01 0.00 0.00 0.01 0.01 0.01 0.01 0.01 0.02 0.02 0.02 0.01 0.01 0.02 0.03 0.04 0.04 0.04 0.03 0.04 0.04 0.05 0.04 0.04 0.03 0.03 0.02 0.02 0.02 0.02 0.02 0.02
0.01 0.02 0.02 0.02 0.01 0.00 0.00 0.00 0.00 0.00 0.00 0.00 0.00 0.00 0.00 0.00 0.01 0.01 0.00 0.00 0.01 0.01 0.02 0.01 0.01 0.03 0.03 0.02 0.02 0.01 0.02 0.03 0.04 0.05 0.06 0.06 0.05 0.05 0.04 0.04 0.04 0.03 0.02 0.02 0.02 0.02 0.02 0.02 0.02
0.01 0.02 0.02 0.03 0.02 0.01 0.01 0.00 0.00 0.00 0.01 0.01 0.01 0.00 0.00 0.01 0.01 0.01 0.00 0.00 0.00 0.00 0.01 0.01 0.01 0.02 0.02 0.03 0.03 0.03 0.03 0.04 0.05 0.05 0.07 0.08 0.08 0.07 0.07 0.06 0.05 0.03 0.03 0.02 0.02 0.01 0.02 0.02 0.02
MSLP
1016.92 1017.08 1017.46 1018.06 1018.80 1019.61 1020.40 1021.10 1021.68 1022.10 1022.41 1022.65 1022.87 1023.13 1023.46 1023.87 1024.33 1024.80 1025.27 1025.68 1026.03 1026.31 1026.55 1026.75 1026.93 1027.10 1027.25 1027.36 1027.41 1027.38 1027.27 1027.09 1026.87 1026.64 1026.43 1026.25 1026.12 1026.02 1025.93 1025.84 1025.72 1025.58 1025.42 1025.26 1025.11 1024.98 1024.88 1024.79 1024.69
1017.15 1017.39 1017.85 1018.51 1019.28 1020.08 1020.82 1021.45 1021.92 1022.25 1022.48 1022.67 1022.88 1023.16 1023.53 1023.99 1024.50 1025.01 1025.50 1025.91 1026.24 1026.50 1026.71 1026.88 1027.04 1027.21 1027.36 1027.49 1027.58 1027.60 1027.55 1027.45 1027.29 1027.13 1026.97 1026.83 1026.70 1026.59 1026.48 1026.35 1026.19 1026.01 1025.83 1025.67 1025.53 1025.42 1025.35 1025.28 1025.18
1017.47 1017.78 1018.30 1018.98 1019.73 1020.46 1021.11 1021.62 1021.98 1022.22 1022.39 1022.56 1022.79 1023.13 1023.57 1024.12 1024.70 1025.27 1025.79 1026.21 1026.53 1026.76 1026.93 1027.07 1027.21 1027.36 1027.52 1027.67 1027.79 1027.86 1027.88 1027.84 1027.76 1027.66 1027.56 1027.45 1027.34 1027.22 1027.07 1026.89 1026.69 1026.47 1026.25 1026.07 1025.93 1025.84 1025.77 1025.72 1025.63
1017.86 1018.24 1018.80 1019.46 1020.15 1020.78 1021.29 1021.66 1021.89 1022.03 1022.16 1022.33 1022.61 1023.02 1023.57 1024.21 1024.88 1025.52 1026.07 1026.50 1026.81 1027.03 1027.18 1027.30 1027.43 1027.57 1027.73 1027.90 1028.04 1028.15 1028.21 1028.23 1028.21 1028.17 1028.12 1028.04 1027.95 1027.82 1027.66 1027.44 1027.20 1026.94 1026.70 1026.49 1026.34 1026.25 1026.20 1026.15 1026.07
1018.32 1018.76 1019.34 1019.96 1020.56 1021.06 1021.41 1021.63 1021.72 1021.77 1021.85 1022.04 1022.37 1022.88 1023.52 1024.25 1025.00 1025.69 1026.28 1026.72 1027.04 1027.25 1027.40 1027.52 1027.65 1027.80 1027.98 1028.15 1028.31 1028.44 1028.52 1028.57 1028.60 1028.60 1028.58 1028.54 1028.47 1028.35 1028.18 1027.96 1027.69 1027.42 1027.16 1026.94 1026.79 1026.69 1026.64 1026.60 1026.52
1018.84 1019.35 1019.93 1020.51 1021.00 1021.36 1021.55 1021.60 1021.56 1021.52 1021.57 1021.76 1022.15 1022.73 1023.45 1024.25 1025.06 1025.79 1026.39 1026.85 1027.17 1027.39 1027.55 1027.70 1027.85 1028.03 1028.22 1028.40 1028.56 1028.69 1028.78 1028.83 1028.86 1028.88 1028.89 1028.88 1028.84 1028.75 1028.60 1028.40 1028.15 1027.88 1027.62 1027.41 1027.25 1027.16 1027.10 1027.06 1026.99
1019.43 1020.00 1020.60 1021.12 1021.50 1021.71 1021.75 1021.64 1021.49 1021.37 1021.38 1021.58 1022.00 1022.63 1023.40 1024.24 1025.06 1025.80 1026.40 1026.85 1027.18 1027.42 1027.61 1027.79 1027.99 1028.20 1028.41 1028.60 1028.76 1028.87 1028.94 1028.97 1028.99 1029.01 1029.03 1029.05 1029.04 1029.00 1028.90 1028.74 1028.52 1028.29 1028.06 1027.86 1027.71 1027.62 1027.56 1027.52 1027.45
1020.09 1020.72 1021.31 1021.77 1022.05 1022.13 1022.02 1021.79 1021.52 1021.34 1021.31 1021.51 1021.95 1022.59 1023.37 1024.21 1025.02 1025.73 1026.31 1026.75 1027.08 1027.33 1027.56 1027.79 1028.03 1028.28 1028.53 1028.73 1028.88 1028.97 1029.00 1029.00 1029.00 1029.00 1029.03 1029.06 1029.09 1029.10 1029.05 1028.95 1028.80 1028.61 1028.42 1028.25 1028.12 1028.03 1027.97 1027.92 1027.86
1020.79 1021.45 1022.02 1022.43 1022.61 1022.57 1022.34 1022.00 1021.65 1021.40 1021.35 1021.54 1021.97 1022.60 1023.37 1024.18 1024.95 1025.61 1026.14 1026.55 1026.87 1027.14 1027.40 1027.67 1027.97 1028.27 1028.54 1028.76 1028.91 1028.98 1028.98 1028.95 1028.91 1028.89 1028.91 1028.96 1029.02 1029.07 1029.08 1029.04 1028.94 1028.81 1028.67 1028.53 1028.42 1028.34 1028.28 1028.22 1028.15
1021.46 1022.12 1022.66 1023.00 1023.10 1022.96 1022.63 1022.21 1021.80 1021.51 1021.43 1021.60 1022.01 1022.62 1023.35 1024.11 1024.82 1025.43 1025.91 1026.28 1026.58 1026.86 1027.14 1027.46 1027.80 1028.14 1028.44 1028.68 1028.83 1028.89 1028.87 1028.82 1028.76 1028.72 1028.74 1028.79 1028.87 1028.95 1029.00 1029.00 1028.96 1028.88 1028.78 1028.67 1028.58 1028.50 1028.44 1028.38 1028.30
1022.02 1022.65 1023.14 1023.41 1023.43 1023.22 1022.82 1022.35 1021.89 1021.58 1021.48 1021.63 1022.01 1022.58 1023.27 1023.97 1024.62 1025.16 1025.60 1025.94 1026.23 1026.51 1026.81 1027.15 1027.52 1027.89 1028.23 1028.49 1028.65 1028.71 1028.70 1028.64 1028.57 1028.53 1028.53 1028.58 1028.67 1028.76 1028.84 1028.87 1028.86 1028.82 1028.75 1028.67 1028.59 1028.52 1028.46 1028.40 1028.31
1022.37 1022.95 1023.37 1023.58 1023.54 1023.28 1022.85 1022.35 1021.88 1021.55 1021.43 1021.56 1021.91 1022.44 1023.07 1023.72 1024.32 1024.82 1025.22 1025.54 1025.82 1026.09 1026.40 1026.76 1027.15 1027.54 1027.90 1028.18 1028.36 1028.45 1028.45 1028.41 1028.35 1028.31 1028.32 1028.36 1028.44 1028.53 1028.61 1028.66 1028.67 1028.64 1028.60 1028.54 1028.48 1028.42 1028.36 1028.29 1028.21
1022.45 1022.96 1023.32 1023.47 1023.41 1023.13 1022.70 1022.20 1021.74 1021.41 1021.28 1021.38 1021.69 1022.17 1022.76 1023.36 1023.92 1024.39 1024.78 1025.08 1025.36 1025.64 1025.95 1026.30 1026.70 1027.10 1027.46 1027.76 1027.98 1028.10 1028.14 1028.12 1028.09 1028.08 1028.09 1028.13 1028.20 1028.28 1028.35 1028.39 1028.40 1028.39 1028.36 1028.32 1028.28 1028.23 1028.18 1028.12 1028.04
1022.24 1022.67 1022.99 1023.13 1023.07 1022.82 1022.43 1021.96 1021.52 1021.19 1021.04 1021.11 1021.37 1021.80 1022.33 1022.89 1023.43 1023.89 1024.27 1024.59 1024.87 1025.15 1025.46 1025.80 1026.19 1026.58 1026.95 1027.26 1027.50 1027.66 1027.75 1027.78 1027.79 1027.80 1027.83 1027.88 1027.94 1028.00 1028.06 1028.09 1028.10 1028.10 1028.08 1028.06 1028.04 1028.01 1027.98 1027.92 1027.85
1021.79 1022.17 1022.47 1022.63 1022.62 1022.44 1022.11 1021.71 1021.30 1020.97 1020.80 1020.80 1021.01 1021.37 1021.84 1022.36 1022.88 1023.34 1023.73 1024.07 1024.36 1024.65 1024.95 1025.29 1025.65 1026.02 1026.38 1026.70 1026.96 1027.15 1027.28 1027.37 1027.43 1027.48 1027.53 1027.59 1027.65 1027.71 1027.75 1027.78 1027.79 1027.80 1027.80 1027.80 1027.80 1027.80 1027.79 1027.75 1027.68
1021.20 1021.57 1021.90 1022.12 1022.20 1022.11 1021.87 1021.52 1021.14 1020.80 1020.59 1020.53 1020.65 1020.93 1021.33 1021.81 1022.30 1022.77 1023.18 1023.54 1023.86 1024.16 1024.46 1024.77 1025.11 1025.46 1025.80 1026.11 1026.38 1026.60 1026.77 1026.90 1027.00 1027.09 1027.18 1027.25 1027.33 1027.39 1027.43 1027.47 1027.49 1027.51 1027.54 1027.56 1027.59 1027.62 1027.62 1027.61 1027.56
1020.62 1021.01 1021.40 1021.72 1021.90 1021.90 1021.74 1021.45 1021.08 1020.71 1020.43 1020.28 1020.30 1020.49 1020.82 1021.25 1021.72 1022.19 1022.63 1023.02 1023.36 1023.68 1023.98 1024.28 1024.60 1024.92 1025.24 1025.53 1025.80 1026.04 1026.24 1026.40 1026.54 1026.67 1026.78 1026.88 1026.97 1027.05 1027.12 1027.17 1027.21 1027.25 1027.30 1027.35 1027.40 1027.45 1027.48 1027.49 1027.46
1020.19 1020.64 1021.11 1021.51 1021.77 1021.86 1021.75 1021.47 1021.07 1020.65 1020.28 1020.03 1019.94 1020.03 1020.29 1020.67 1021.12 1021.60 1022.07 1022.49 1022.87 1023.21 1023.53 1023.83 1024.13 1024.43 1024.72 1025.01 1025.27 1025.51 1025.72 1025.90 1026.07 1026.22 1026.36 1026.49 1026.61 1026.71 1026.80 1026.88 1026.95 1027.02 1027.09 1027.16 1027.23 1027.30 1027.35 1027.37 1027.36
1020.03 1020.53 1021.06 1021.52 1021.82 1021.92 1021.80 1021.48 1021.02 1020.50 1020.02 1019.66 1019.48 1019.48 1019.68 1020.03 1020.49 1020.99 1021.49 1021.96 1022.38 1022.76 1023.09 1023.41 1023.71 1024.00 1024.28 1024.55 1024.81 1025.04 1025.25 1025.44 1025.61 1025.78 1025.94 1026.10 1026.24 1026.38 1026.51 1026.62 1026.72 1026.81 1026.90 1026.98 1027.06 1027.14 1027.20 1027.24 1027.26
1020.18 1020.72 1021.26 1021.70 1021.97 1022.00 1021.79 1021.35 1020.77 1020.13 1019.53 1019.07 1018.80 1018.76 1018.93 1019.28 1019.76 1020.30 1020.86 1021.38 1021.86 1022.28 1022.66 1023.00 1023.32 1023.62 1023.90 1024.17 1024.42 1024.64 1024.84 1025.03 1025.21 1025.38 1025.55 1025.73 1025.91 1026.08 1026.25 1026.39 1026.52 1026.63 1026.72 1026.81 1026.89 1026.97 1027.03 1027.09 1027.13
1020.62 1021.14 1021.63 1021.97 1022.09 1021.95 1021.56 1020.94 1020.18 1019.39 1018.68 1018.15 1017.84 1017.79 1017.98 1018.38 1018.92 1019.53 1020.15 1020.75 1021.29 1021.77 1022.20 1022.59 1022.94 1023.27 1023.57 1023.85 1024.10 1024.32 1024.51 1024.69 1024.86 1025.03 1025.21 1025.41 1025.62 1025.83 1026.02 1026.20 1026.35 1026.48 1026.58 1026.66 1026.73 1026.80 1026.87 1026.94 1027.01
1021.26 1021.71 1022.05 1022.19 1022.07 1021.67 1021.00 1020.14 1019.18 1018.24 1017.44 1016.86 1016.56 1016.56 1016.83 1017.31 1017.95 1018.65 1019.37 1020.04 1020.66 1021.21 1021.70 1022.14 1022.54 1022.91 1023.25 1023.55 1023.82 1024.04 1024.24 1024.40 1024.57 1024.74 1024.93 1025.14 1025.38 1025.61 1025.85 1026.05 1026.23 1026.36 1026.47 1026.54 1026.60 1026.67 1026.74 1026.83 1026.93
1021.98 1022.30 1022.42 1022.28 1021.84 1021.11 1020.12 1018.98 1017.80 1016.72 1015.85 1015.28 1015.04 1015.13 1015.52 1016.14 1016.90 1017.72 1018.53 1019.29 1019.97 1020.59 1021.14 1021.63 1022.09 1022.52 1022.90 1023.24 1023.54 1023.78 1023.99 1024.16 1024.32 1024.50 1024.70 1024.92 1025.18 1025.45 1025.71 1025.95 1026.14 1026.29 1026.40 1026.47 1026.53 1026.60 1026.68 1026.79 1026.93
1022.64 1022.78 1022.65 1022.19 1021.39 1020.29 1018.97 1017.56 1016.18 1014.99 1014.09 1013.56 1013.43 1013.66 1014.20 1014.96 1015.85 1016.78 1017.68 1018.51 1019.25 1019.92 1020.52 1021.07 1021.58 1022.07 1022.51 1022.90 1023.24 1023.52 1023.74 1023.93 1024.10 1024.29 1024.50 1024.74 1025.02 1025.32 1025.61 1025.87 1026.09 1026.26 1026.37 1026.46 1026.53 1026.61 1026.71 1026.85 1027.02
1023.12 1023.08 1022.69 1021.91 1020.77 1019.33 1017.71 1016.06 1014.52 1013.27 1012.38 1011.93 1011.92 1012.29 1012.99 1013.89 1014.89 1015.91 1016.87 1017.74 1018.52 1019.22 1019.85 1020.45 1021.02 1021.56 1022.06 1022.52 1022.91 1023.23 1023.49 1023.71 1023.91 1024.11 1024.33 1024.60 1024.90 1025.22 1025.53 1025.82 1026.06 1026.25 1026.39 1026.50 1026.59 1026.69 1026.83 1027.00 1027.21
1023.37 1023.16 1022.54 1021.49 1020.05 1018.34 1016.49 1014.67 1013.05 1011.77 1010.93 1010.58 1010.69 1011.20 1012.01 1013.02 1014.09 1015.15 1016.14 1017.02 1017.81 1018.51 1019.17 1019.80 1020.41 1021.01 1021.58 1022.09 1022.55 1022.93 1023.24 1023.49 1023.72 1023.95 1024.20 1024.49 1024.81 1025.14 1025.48 1025.79 1026.05 1026.26 1026.43 1026.57 1026.70 1026.84 1027.02 1027.24 1027.49
1023.34 1023.01 1022.22 1020.97 1019.34 1017.45 1015.46 1013.56 1011.91 1010.67 1009.91 1009.65 1009.86 1010.47 1011.35 1012.40 1013.49 1014.54 1015.50 1016.36 1017.12 1017.81 1018.47 1019.12 1019.78 1020.43 1021.06 1021.64 1022.16 1022.61 1022.98 1023.29 1023.56 1023.83 1024.11 1024.41 1024.75 1025.10 1025.44 1025.76 1026.04 1026.28 1026.47 1026.64 1026.82 1027.01 1027.24 1027.51 1027.80
1023.04 1022.64 1021.74 1020.38 1018.66 1016.70 1014.69 1012.80 1011.19 1010.02 1009.35 1009.17 1009.45 1010.09 1010.98 1012.00 1013.04 1014.03 1014.92 1015.72 1016.44 1017.10 1017.76 1018.43 1019.12 1019.83 1020.52 1021.18 1021.77 1022.29 1022.72 1023.10 1023.42 1023.73 1024.04 1024.37 1024.72 1025.08 1025.42 1025.75 1026.03 1026.28 1026.50 1026.71 1026.92 1027.17 1027.45 1027.77 1028.11
1022.48 1022.04 1021.11 1019.73 1018.01 1016.08 1014.14 1012.33 1010.84 1009.77 1009.18 1009.06 1009.35 1009.97 1010.80 1011.73 1012.66 1013.54 1014.34 1015.05 1015.71 1016.35 1017.01 1017.70 1018.44 1019.20 1019.96 1020.68 1021.35 1021.94 1022.45 1022.89 1023.28 1023.65 1024.00 1024.36 1024.72 1025.08 1025.42 1025.74 1026.02 1026.27 1026.50 1026.74 1026.99 1027.28 1027.62 1027.99 1028.37
1021.70 1021.24 1020.30 1018.96 1017.30 1015.49 1013.68 1012.03 1010.67 1009.72 1009.21 1009.11 1009.38 1009.92 1010.64 1011.43 1012.22 1012.96 1013.64 1014.27 1014.88 1015.50 1016.17 1016.90 1017.68 1018.50 1019.33 1020.13 1020.87 1021.54 1022.12 1022.64 1023.11 1023.53 1023.94 1024.33 1024.72 1025.08 1025.42 1025.72 1025.99 1026.23 1026.47 1026.72 1027.00 1027.34 1027.72 1028.13 1028.56
Thickness
5677 5680 5684 5684 5677 5671 5669 5675 5678 5675 5677 5678 5678 5681 5683 5683 5681 5675 5674 5676 5674 5672 5670 5668 5667 5666 5665 5663 5662 5661 5660 5659 5659 5659 5659 5658 5658 5658 5658 5658 5658 5658 5658 5657 5657 5656 5655 5654 5653
5674 5677 5679 5677 5669 5664 5669 5676 5674 5674 5674 5673 5673 5675 5677 5677 5676 5673 5671 5670 5669 5668 5666 5664 5662 5661 5660 5659 5658 5657 5656 5656 5655 5655 5654 5654 5654 5654 5654 5654 5653 5653 5653 5653 5652 5651 5650 5649 5648
5671 5673 5671 5667 5663 5667 5670 5673 5674 5670 5669 5670 5669 5671 5673 5672 5670 5669 5668 5666 5665 5664 5662 5660 5659 5658 5656 5655 5654 5653 5652 5652 5652 5651 5650 5650 5650 5649 5649 5649 5649 5649 5648 5647 5646 5646 5644 5644 5643
5668 5667 5664 5659 5658 5664 5668 5668 5668 5665 5665 5666 5668 5667 5666 5664 5664 5664 5663 5662 5661 5659 5658 5656 5655 5654 5652 5651 5650 5649 5648 5648 5648 5647 5646 5646 5645 5645 5645 5645 5644 5644 5643 5642 5641 5640 5639 5638 5637
5664 5661 5653 5650 5655 5660 5661 5662 5662 5663 5663 5663 5663 5663 5662 5659 5659 5659 5658 5658 5657 5656 5654 5652 5650 5649 5648 5647 5647 5646 5645 5644 5644 5643 5642 5642 5641 5641 5640 5640 5639 5638 5638 5636 5635 5634 5633 5632 5631
5655 5654 5648 5648 5653 5654 5656 5656 5657 5658 5658 5657 5657 5658 5658 5655 5654 5654 5654 5653 5652 5651 5649 5648 5645 5644 5643 5643 5642 5642 5641 5640 5639 5639 5638 5637 5637 5636 5635 5635 5634 5633 5632 5631 5629 5628 5627 5626 5625
5648 5646 5645 5646 5648 5649 5651 5651 5652 5654 5653 5653 5654 5654 5654 5650 5649 5648 5648 5648 5647 5646 5644 5643 5642 5640 5639 5638 5637 5637 5636 5635 5635 5634 5633 5632 5632 5631 5630 5629 5628 5627 5626 5625 5623 5622 5621 5620 5618
5646 5642 5638 5640 5643 5646 5646 5646 5647 5648 5649 5649 5649 5651 5651 5647 5643 5642 5642 5642 5641 5640 5639 5638 5637 5636 5634 5634 5633 5632 5631 5631 5630 5629 5628 5627 5626 5625 5624 5623 5622 5621 5620 5619 5617 5616 5615 5613 5612
5640 5635 5636 5638 5640 5642 5639 5639 5640 5640 5642 5641 5642 5644 5644 5640 5638 5636 5636 5636 5635 5634 5634 5634 5633 5632 5630 5630 5629 5628 5627 5626 5625 5624 5623 5622 5621 5620 5618 5617 5616 5615 5613 5612 5610 5609 5607 5607 5605
5634 5632 5636 5636 5637 5637 5633 5634 5635 5636 5637 5637 5637 5636 5634 5633 5633 5633 5633 5632 5631 5630 5630 5629 5629 5628 5627 5626 5625 5624 5623 5622 5621 5620 5618 5617 5616 5614 5613 5611 5609 5608 5606 5605 5603 5601 5600 5600 5600
5626 5629 5629 5626 5627 5628 5627 5628 5630 5632 5635 5639 5638 5635 5630 5629 5628 5629 5630 5629 5628 5627 5625 5625 5624 5623 5622 5621 5620 5619 5618 5618 5616 5615 5614 5612 5611 5609 5607 5605 5603 5601 5600 5598 5596 5595 5595 5594 5594
5617 5618 5619 5620 5617 5618 5621 5623 5624 5626 5634 5635 5634 5631 5627 5626 5626 5626 5626 5625 5624 5623 5621 5620 5619 5618 5617 5616 5616 5615 5614 5613 5612 5610 5609 5607 5606 5604 5602 5601 5599 5597 5595 5593 5590 5589 5588 5588 5588
5611 5611 5610 5610 5610 5612 5613 5617 5619 5624 5626 5625 5624 5623 5623 5623 5623 5622 5621 5620 5619 5618 5617 5616 5614 5613 5612 5612 5611 5610 5609 5608 5607 5606 5604 5603 5601 5599 5598 5596 5594 5592 5590 5588 5585 5584 5583 5583 5582
5605 5604 5604 5605 5606 5607 5608 5613 5612 5623 5621 5619 5618 5618 5619 5619 5618 5617 5616 5616 5615 5614 5613 5611 5609 5608 5608 5607 5607 5606 5604 5603 5602 5601 5599 5598 5596 5595 5593 5591 5589 5587 5585 5583 5581 5580 5579 5578 5577
5597 5599 5602 5602 5602 5602 5601 5610 5615 5621 5615 5615 5615 5615 5614 5614 5614 5613 5613 5612 5612 5610 5609 5607 5605 5604 5603 5602 5602 5601 5599 5598 5597 5596 5594 5593 5591 5589 5588 5586 5584 5582 5579 5577 5576 5575 5573 5573 5572
5593 5596 5602 5601 5596 5595 5596 5614 5620 5614 5611 5612 5612 5612 5611 5610 5610 5610 5609 5608 5608 5606 5605 5603 5601 5600 5599 5598 5597 5596 5594 5593 5592 5590 5588 5587 5585 5584 5582 5580 5578 5575 5573 5572 5571 5570 5569 5568 5567
5592 5597 5599 5598 5591 5590 5591 5607 5612 5605 5605 5609 5610 5609 5608 5607 5606 5605 5605 5604 5603 5603 5601 5600 5598 5596 5595 5593 5592 5590 5589 5588 5586 5585 5583 5582 5580 5578 5576 5574 5572 5569 5568 5566 5565 5564 5564 5563 5562
5595 5595 5593 5593 5588 5584 5588 5598 5606 5603 5601 5604 5606 5605 5604 5604 5603 5602 5600 5600 5599 5598 5597 5595 5593 5592 5590 5588 5586 5584 5583 5582 5580 5579 5577 5576 5574 5571 5569 5568 5566 5563 5562 5560 5559 5559 5558 5557 5556
5589 5588 5589 5588 5580 5579 5587 5595 5603 5603 5599 5600 5601 5601 5600 5600 5600 5597 5595 5594 5593 5592 5592 5591 5589 5587 5585 5583 5582 5580 5579 5576 5575 5573 5571 5569 5568 5565 5563 5562 5560 5558 5557 5556 5555 5553 5552 5551 5549
5576 5580 5584 5581 5573 5575 5583 5592 5602 5601 5598 5598 5599 5599 5598 5596 5594 5591 5589 5588 5587 5587 5586 5586 5584 5583 5581 5579 5578 5576 5574 5571 5569 5567 5565 5564 5562 5560 5558 5557 5555 5553 5552 5550 5549 5548 5547 5546 5543
5569 5574 5577 5574 5570 5569 5574 5596 5602 5600 5594 5593 5592 5593 5593 5591 5590 5587 5584 5583 5582 5582 5581 5580 5579 5578 5576 5574 5571 5569 5567 5565 5563 5562 5561 5559 5557 5555 5553 5552 5550 5548 5547 5546 5545 5543 5543 5541 5538
5567 5565 5563 5561 5566 5575 5569 5589 5603 5599 5595 5593 5590 5589 5588 5587 5585 5582 5579 5577 5577 5576 5575 5574 5573 5572 5571 5569 5567 5566 5566 5565 5563 5559 5557 5554 5552 5550 5549 5547 5545 5544 5543 5542 5540 5538 5537 5536 5534
5558 5553 5553 5554 5556 5560 5565 5570 5600 5592 5595 5596 5591 5587 5584 5581 5579 5578 5575 5573 5571 5570 5569 5568 5567 5566 5565 5563 5563 5561 5561 5559 5556 5553 5551 5549 5547 5545 5544 5543 5541 5539 5538 5536 5535 5533 5531 5530 5529
5542 5544 5544 5544 5549 5554 5565 5567 5593 5596 5594 5592 5589 5583 5579 5576 5574 5572 5570 5567 5566 5564 5562 5562 5562 5561 5559 5558 5557 5556 5555 5553 5550 5548 5546 5544 5542 5540 5539 5538 5536 5535 5533 5531 5529 5528 5526 5525 5523
5540 5547 5550 5550 5549 5561 5555 5558 5584 5587 5582 5581 5579 5577 5574 5570 5568 5566 5564 5561 5559 5557 5556 5556 5556 5555 5553 5552 5551 5550 5549 5548 5546 5544 5542 5539 5537 5536 5534 5533 5531 5530 5528 5526 5523 5522 5521 5518 5516
5539 5545 5549 5553 5556 5564 5545 5559 5581 5575 5571 5569 5568 5566 5564 5562 5560 5558 5557 5555 5553 5551 5550 5549 5549 5548 5547 5546 5545 5543 5542 5541 5539 5538 5536 5535 5533 5531 5529 5527 5526 5524 5522 5520 5518 5516 5515 5512 5510
5532 5536 5537 5537 5521 5535 5561 5564 5565 5566 5564 5563 5561 5559 5557 5554 5552 5550 5549 5547 5545 5544 5542 5541 5541 5540 5539 5538 5537 5536 5535 5534 5532 5530 5529 5527 5526 5525 5523 5522 5521 5519 5517 5515 5513 5511 5508 5506 5504
5519 5527 5525 5529 5535 5547 5556 5561 5573 5567 5566 5560 5556 5553 5550 5546 5543 5541 5539 5538 5536 5535 5534 5533 5533 5532 5532 5530 5529 5529 5528 5527 5525 5523 5522 5520 5519 5518 5517 5516 5515 5513 5512 5509 5507 5505 5503 5500 5498
5509 5511 5519 5524 5526 5538 5548 5566 5560 5559 5555 5551 5548 5545 5542 5538 5535 5533 5530 5528 5526 5525 5524 5524 5523 5523 5523 5522 5521 5520 5520 5519 5517 5516 5515 5513 5512 5511 5511 5510 5509 5507 5506 5504 5502 5500 5496 5493 5491
5504 5512 5513 5520 5515 5515 5532 5548 5546 5541 5540 5538 5537 5534 5531 5528 5527 5524 5521 5520 5518 5517 5515 5514 5514 5514 5513 5512 5512 5512 5511 5510 5509 5509 5508 5506 5506 5504 5503 5502 5502 5501 5499 5497 5496 5493 5490 5487 5484